Location: Lango�lan
(48.1202°N, 3.2340°W)
Time: 13:29:34
(UTC+00:00)

NOAA 6 - Pass Details

Date: 23 October 2019
Orbit: 772 x 788 km, 98.6° (Epoch: 21 November)

Event Time Altitude Azimuth Distance (km) Brightness Sun altitude
Rises 06:05:05 0° 13° (NNE) 3,288 7.3 -7.1°
Reaches altitude 10° 06:07:25 10° 13° (NNE) 2,353 6.6 -6.7°
Maximum altitude 06:12:37 82° 286° (WNW) 796 4.0 -5.9°
Drops below altitude 10° 06:17:45 10° 200° (SSW) 2,325 6.4 -5.0°
Sets 06:20:03 0° 200° (SSW) 3,246 7.2 -4.7°
